GW0865 Weather Reports


time (UTC)temp
C
wind
direction
speed
KPH
gust
KPH
rain 1hr
cm
rain 24hr
cm
rain mn
cm
humidity
%
barometer
mb
20260508064541 11 0 0.0 3.2 0.00 0.00 0.00 79 1015.2
20260508063056 10 0 0.0 4.8 0.00 0.00 0.00 82 1015.2
20260508061547 10 113 0.0 3.2 0.00 0.00 0.00 83 1015.1
20260508060047 9 0 0.0 1.6 0.00 0.00 0.00 86 1014.9
20260508054544 8 120 0.0 3.2 0.00 0.00 0.00 87 1014.9
20260508053039 8 0 0.0 1.6 0.00 0.00 0.00 88 1014.8
20260508051542 8 131 0.0 0.0 0.00 0.00 0.00 89 1014.8
20260508050042 8 0 0.0 0.0 0.00 0.00 0.00 90 1014.8
20260508044538 8 0 0.0 0.0 0.00 0.00 0.00 89 1014.9
20260508043054 8 0 0.0 0.0 0.00 0.00 0.00 88 1014.7
20260508041547 8 0 0.0 0.0 0.00 0.00 0.00 89 1014.6
20260508040040 8 0 0.0 0.0 0.00 0.00 0.00 89 1014.5
20260508034545 8 0 0.0 0.0 0.00 0.00 0.00 88 1014.5
20260508033040 8 0 0.0 1.6 0.00 0.00 0.00 89 1014.6
20260508031540 8 0 0.0 0.0 0.00 0.00 0.00 91 1014.6
20260508030043 8 0 0.0 0.0 0.00 0.00 0.00 90 1014.7
20260508024541 8 0 0.0 0.0 0.00 0.00 0.00 90 1014.8
20260508023047 8 0 0.0 0.0 0.00 0.00 0.00 89 1014.7
20260508021554 8 0 0.0 0.0 0.00 0.00 0.00 89 1014.6
20260508020046 9 0 0.0 4.8 0.00 0.00 0.00 88 1014.5
20260508014540 9 0 0.0 0.0 0.00 0.00 0.00 88 1014.4
20260508013052 9 0 0.0 0.0 0.00 0.00 0.00 88 1014.3
20260508011542 10 151 0.0 1.6 0.00 0.00 0.00 89 1014.4
20260508010043 10 0 0.0 0.0 0.00 0.00 0.00 89 1014.4
20260508004539 10 0 0.0 0.0 0.00 0.00 0.00 88 1014.5
20260508003046 10 0 0.0 1.6 0.00 0.00 0.00 87 1014.7
20260508001609 10 0 0.0 1.6 0.00 0.00 0.00 88 1014.6
20260508000047 10 0 0.0 0.0 0.00 0.00 0.00 88 1014.7
20260507234540 10 0 0.0 0.0 0.00 0.00 0.00 87 1014.7
20260507233039 10 0 0.0 1.6 0.00 0.00 0.00 86 1014.6
20260507231540 10 0 0.0 0.0 0.00 0.00 0.00 85 1014.7
20260507230038 10 0 0.0 0.0 0.00 0.00 0.00 83 1014.7
20260507224543 11 0 0.0 3.2 0.00 0.00 0.00 80 1014.8
20260507223044 11 0 0.0 0.0 0.00 0.00 0.00 77 1014.8
20260507221538 11 155 0.0 0.0 0.00 0.00 0.00 77 1014.7
20260507220047 11 0 0.0 0.0 0.00 0.00 0.00 77 1014.8
20260507214545 11 0 0.0 0.0 0.00 0.00 0.00 76 1014.7
20260507213036 11 0 0.0 0.0 0.00 0.00 0.00 75 1014.9
20260507211544 11 0 0.0 1.6 0.00 0.00 0.00 74 1014.7
20260507210040 11 0 0.0 1.6 0.00 0.00 0.00 73 1014.6
20260507204544 12 232 0.0 3.2 0.00 0.00 0.00 72 1014.7
20260507203039 12 225 0.0 3.2 0.00 0.00 0.00 70 1014.4
20260507201542 12 0 0.0 4.8 0.00 0.00 0.00 70 1014.4
20260507200042 12 231 0.0 4.8 0.00 0.00 0.00 69 1014.2
20260507194540 12 0 0.0 4.8 0.00 0.00 0.00 68 1014.1
20260507193040 12 0 1.6 6.4 0.00 0.00 0.00 67 1014.0
20260507191538 12 0 1.6 8.0 0.00 0.00 0.00 66 1013.9
20260507190052 13 220 1.6 4.8 0.00 0.00 0.00 64 1013.9
20260507184548 13 205 0.0 8.0 0.00 0.00 0.00 63 1013.8
20260507183039 13 269 4.8 8.0 0.00 0.00 0.00 62 1013.8
20260507181539 13 258 6.4 12.9 0.00 0.00 0.00 60 1013.7
20260507180039 13 241 1.6 8.0 0.00 0.00 0.00 59 1013.4
20260507174545 14 211 1.6 4.8 0.00 0.00 0.00 57 1013.5
20260507173047 14 191 3.2 11.3 0.00 0.00 0.00 55 1013.5
20260507171540 14 275 4.8 11.3 0.00 0.00 0.00 53 1013.5
20260507170045 15 261 3.2 9.7 0.00 0.00 0.00 53 1013.5
20260507164539 15 224 4.8 11.3 0.00 0.00 0.00 52 1013.4
20260507163039 15 182 3.2 9.7 0.00 0.00 0.00 51 1013.5
20260507161549 15 215 3.2 8.0 0.00 0.00 0.00 50 1013.5
20260507160038 15 119 3.2 9.7 0.00 0.00 0.00 48 1013.5
20260507154538 15 134 1.6 9.7 0.00 0.00 0.00 49 1013.4
20260507153050 15 118 0.0 8.0 0.00 0.00 0.00 50 1013.5
20260507151546 15 233 3.2 8.0 0.00 0.00 0.00 49 1013.6
20260507150043 15 163 3.2 9.7 0.00 0.00 0.00 50 1013.6
20260507144540 15 229 3.2 14.5 0.00 0.00 0.00 49 1013.7
20260507143037 15 219 3.2 12.9 0.00 0.00 0.00 49 1013.8
20260507141545 15 157 1.6 6.4 0.00 0.00 0.00 48 1013.9
20260507140049 15 137 4.8 16.1 0.00 0.00 0.00 50 1014.0
20260507134544 16 210 1.6 8.0 0.00 0.00 0.00 49 1014.0
20260507133041 15 268 3.2 8.0 0.00 0.00 0.00 51 1014.1
20260507131553 15 203 3.2 8.0 0.00 0.00 0.00 54 1014.3
20260507130043 15 80 3.2 11.3 0.00 0.00 0.00 53 1014.3
20260507124551 15 215 6.4 12.9 0.00 0.00 0.00 53 1014.3
20260507123041 15 102 3.2 12.9 0.00 0.00 0.00 49 1014.5
20260507121539 15 127 4.8 12.9 0.00 0.00 0.00 54 1014.3
20260507120042 15 158 1.6 12.9 0.00 0.00 0.00 53 1014.4
20260507114555 15 141 0.0 6.4 0.00 0.00 0.00 60 1014.4
20260507113042 14 112 1.6 8.0 0.00 0.00 0.00 60 1014.4
20260507111538 13 355 1.6 11.3 0.00 0.00 0.00 65 1014.6
20260507110049 12 99 3.2 9.7 0.00 0.00 0.00 66 1014.9
20260507104547 13 257 0.0 4.8 0.00 0.00 0.00 67 1015.1
20260507103045 12 230 1.6 4.8 0.00 0.00 0.00 67 1015.1
20260507101541 12 201 0.0 6.4 0.00 0.00 0.00 71 1015.2
20260507100041 12 180 1.6 6.4 0.00 0.00 0.00 72 1015.1
20260507094541 11 134 1.6 8.0 0.00 0.00 0.00 75 1015.1
20260507093045 11 156 1.6 6.4 0.00 0.00 0.00 78 1015.0
20260507091549 10 122 0.0 4.8 0.00 0.00 0.00 81 1015.0
20260507090043 10 119 1.6 6.4 0.00 0.00 0.00 82 1015.0
20260507084540 10 112 0.0 6.4 0.00 0.00 0.00 84 1015.1
20260507083040 9 115 3.2 6.4 0.00 0.00 0.00 84 1015.1
20260507081547 8 56 3.2 12.9 0.00 0.00 0.00 85 1015.1
20260507080048 8 89 1.6 4.8 0.00 0.00 0.00 87 1015.1
20260507074557 8 163 1.6 8.0 0.00 0.00 0.00 88 1015.1
20260507073041 7 93 1.6 6.4 0.00 0.00 0.00 89 1015.0
20260507071540 7 86 1.6 6.4 0.00 0.00 0.00 89 1015.0
20260507070038 7 106 1.6 8.0 0.00 0.00 0.00 89 1014.9